Regional Weather Roundup
Issued by NWS State College, PA

Home | Current Version | Previous Version | Graphics & Text | Print | Product List | Glossary On
Versions: 1 2 3 4 5 6 7 8 9 10 11 12 13 14 15 16 17 18 19 20 21 22 23 24 25 26 27 28 29 30 31 32 33 34 35 36 37 38 39 40 41 42 43 44 45 46 47 48 49 50
000
ASUS41 KCTP 230710
RWRCTP

REGIONAL WEATHER ROUNDUP
NATIONAL WEATHER SERVICE STATE COLLEGE PA
300 AM EDT SAT JUL 23 2016

Note: "fair" indicates few or no clouds below 12,000 feet with no
significant weather and/or obstructions to visibility.

* = STATION THAT DOES NOT REPORT PRECIPITATION /E.G. RAIN...SNOW...ETC/
    THUNDER OR FOG.

PAZ002>004-007>009-013>016-020>023-029>032-230800-
WESTERN PENNSYLVANIA

CITY           SKY/WX    TMP DP  RH WIND       PRES   REMARKS
ERIE           CLEAR     80  72  76 W10G18    29.94R
MEADVILLE      CLEAR     71  67  87 SW5       29.99S
FRANKLIN*      CLEAR     72  66  83 SW9       30.02R
NEW CASTLE     FAIR      74  70  87 SW6       30.00S
BEAVER COUNTY  NOT AVBL
BUTLER*        PTCLDY    72  66  83 SW5       30.03S
PITTSBURGH INT MOCLDY    74  66  76 W6        30.01S
PITTSBURGH     PTCLDY    75  65  70 W10       30.00F
INDIANA*       MOCLDY    72  72 100 W7        30.04S
LATROBE        PTCLDY    73  73 100 S8        30.02F
WASHINGTON CO* CLEAR     70  64  83 CALM      30.03S
$$

PAZ004>006-010>012-017>019-024>028-033>037-041-042-045-046-049>053-230800-
CENTRAL PENNSYLVANIA

CITY           SKY/WX    TMP DP  RH WIND       PRES   REMARKS
BRADFORD       CLEAR     71  65  81 W6        30.00S
DUBOIS         CLEAR     70  67  90 SW6       29.99F
CLEARFIELD     CLEAR     74  68  81 S7        29.98S
JOHNSTOWN      CLEAR     73  63  70 W12       30.05S
ALTOONA        CLEAR     72  66  81 S6        30.00S
STATE COLLEGE  CLEAR     76  69  78 SW8       29.96S
WILLIAMSPORT   CLEAR     73  67  81 CALM      29.88S
SELINSGROVE    CLEAR     68  68 100 CALM      29.91S
FT INDIANTOWN  CLEAR     76  68  76 SW3       29.90S
CAPITAL CITY   CLEAR     77  68  73 CALM      29.90S
HARRISBURG     CLEAR     77  71  82 CALM      29.90R
YORK           CLEAR     71  66  84 CALM      29.92S
$$

PAZ038>040-043-044-047-048-054-055-060>062-067>071-230800-
EASTERN PENNSYLVANIA

CITY           SKY/WX    TMP DP  RH WIND       PRES   REMARKS
SCRANTON       CLEAR     73  64  73 CALM      29.90R
MOUNT POCONO   CLEAR     69  61  75 W3        29.95R
ALLENTOWN      CLEAR     73  66  78 SW6       29.88S
QUAKERTOWN*    SUNNY     81  68  65 CALM      29.89S
READING        CLEAR     75  67  76 CALM      29.88F
LANCASTER      CLEAR     72  67  84 W6        29.91R
COATESVILLE    SUNNY     75  68  78 W8        29.93R
POTTSTOWN      CLEAR     76  67  73 CALM      29.90S
BLUE BELL      CLEAR     73  68  83 CALM      29.87S
DOYLESTOWN     CLEAR     74  67  78 CALM      29.87S
WILLOW GROVE   NOT AVBL
NORTH PHILA    CLEAR     79  69  71 W6        29.88R
PHILADELPHIA   CLEAR     80  71  74 SW7       29.87S
$$




USA.gov is the U.S. government's official web portal to all federal, state and local government web resources and services.